| time (UTC) | temp F | wind direction | speed knots | gust knots | rain 1hr in | rain 24hr in | rain mn in | humidity % | barometer mb |
| 20260503230427 | 75 | 350 | 4.3 | 6.1 | 0.00 | 0.00 | 0.00 | 35 | 1015.2 |
| 20260503225925 | 75 | 348 | 3.5 | 4.3 | 0.00 | 0.00 | 0.00 | 36 | 1015.2 |
| 20260503225422 | 75 | 6 | 2.6 | 7.0 | 0.00 | 0.00 | 0.00 | 38 | 1015.4 |
| 20260503224917 | 75 | 358 | 4.3 | 6.1 | 0.00 | 0.00 | 0.00 | 34 | 1015.3 |
| 20260503224415 | 75 | 340 | 2.6 | 4.3 | 0.00 | 0.00 | 0.00 | 41 | 1015.4 |
| 20260503223912 | 74 | 347 | 2.6 | 4.3 | 0.00 | 0.00 | 0.00 | 40 | 1015.6 |
| 20260503223410 | 73 | 308 | 2.6 | 4.3 | 0.00 | 0.00 | 0.00 | 47 | 1015.7 |
| 20260503222910 | 71 | 333 | 2.6 | 4.3 | 0.00 | 0.00 | 0.00 | 48 | 1015.7 |
| 20260503222409 | 72 | 10 | 2.6 | 5.2 | 0.00 | 0.00 | 0.00 | 49 | 1015.8 |
| 20260503221907 | 72 | 359 | 4.3 | 5.2 | 0.00 | 0.00 | 0.00 | 50 | 1015.9 |
| 20260503221405 | 73 | 326 | 2.6 | 2.6 | 0.00 | 0.00 | 0.00 | 48 | 1016.0 |
| 20260503220901 | 72 | 9 | 1.7 | 2.6 | 0.00 | 0.00 | 0.00 | 48 | 1015.9 |
| 20260503220358 | 71 | 332 | 3.5 | 4.3 | 0.00 | 0.00 | 0.00 | 49 | 1016.1 |
| 20260503215855 | 71 | 20 | 2.6 | 5.2 | 0.00 | 0.00 | 0.00 | 49 | 1016.2 |
| 20260503215352 | 71 | 4 | 4.3 | 5.2 | 0.00 | 0.00 | 0.00 | 48 | 1016.2 |
| 20260503214849 | 71 | 10 | 3.5 | 4.3 | 0.00 | 0.00 | 0.00 | 49 | 1016.3 |
| 20260503214347 | 71 | 3 | 5.2 | 6.1 | 0.00 | 0.00 | 0.00 | 49 | 1016.3 |
| 20260503213844 | 71 | 5 | 4.3 | 6.1 | 0.00 | 0.00 | 0.00 | 50 | 1016.4 |
| 20260503213342 | 70 | 12 | 4.3 | 7.0 | 0.00 | 0.00 | 0.00 | 51 | 1016.5 |
| 20260503212838 | 70 | 6 | 7.8 | 8.7 | 0.00 | 0.00 | 0.00 | 51 | 1016.5 |
| 20260503212336 | 70 | 13 | 8.7 | 9.6 | 0.00 | 0.00 | 0.00 | 50 | 1016.5 |
| 20260503211833 | 69 | 5 | 8.7 | 11.3 | 0.00 | 0.00 | 0.00 | 52 | 1016.5 |
| 20260503211330 | 69 | 40 | 6.1 | 7.8 | 0.00 | 0.00 | 0.00 | 50 | 1016.6 |
| 20260503210825 | 69 | 0 | 6.1 | 8.7 | 0.00 | 0.00 | 0.00 | 55 | 1016.6 |
| 20260503210323 | 69 | 13 | 7.0 | 8.7 | 0.00 | 0.00 | 0.00 | 55 | 1016.6 |
| 20260503205817 | 69 | 19 | 7.0 | 8.7 | 0.00 | 0.00 | 0.00 | 54 | 1016.8 |
| 20260503205314 | 69 | 18 | 8.7 | 9.6 | 0.00 | 0.00 | 0.00 | 50 | 1016.6 |
| 20260503204811 | 69 | 7 | 7.8 | 9.6 | 0.00 | 0.00 | 0.00 | 52 | 1016.9 |
| 20260503204309 | 70 | 22 | 8.7 | 11.3 | 0.00 | 0.00 | 0.00 | 49 | 1016.8 |
| 20260503203806 | 70 | 5 | 7.0 | 8.7 | 0.00 | 0.00 | 0.00 | 52 | 1016.8 |
| 20260503203303 | 69 | 4 | 6.1 | 9.6 | 0.00 | 0.00 | 0.00 | 50 | 1016.8 |
| 20260503202800 | 69 | 0 | 5.2 | 7.8 | 0.00 | 0.00 | 0.00 | 55 | 1016.7 |
| 20260503202258 | 69 | 354 | 5.2 | 7.0 | 0.00 | 0.00 | 0.00 | 53 | 1016.8 |
| 20260503201755 | 69 | 22 | 7.8 | 9.6 | 0.00 | 0.00 | 0.00 | 53 | 1016.7 |
| 20260503201253 | 71 | 352 | 5.2 | 8.7 | 0.00 | 0.00 | 0.00 | 49 | 1016.8 |
| 20260503200749 | 70 | 6 | 5.2 | 6.1 | 0.00 | 0.00 | 0.00 | 52 | 1016.8 |
| 20260503200245 | 71 | 16 | 5.2 | 6.1 | 0.00 | 0.00 | 0.00 | 47 | 1016.8 |
| 20260503195743 | 70 | 14 | 5.2 | 7.0 | 0.00 | 0.00 | 0.00 | 52 | 1016.8 |
| 20260503195239 | 70 | 1 | 4.3 | 7.0 | 0.00 | 0.00 | 0.00 | 51 | 1017.2 |
| 20260503194737 | 70 | 9 | 4.3 | 7.0 | 0.00 | 0.00 | 0.00 | 52 | 1017.1 |
| 20260503194227 | 70 | 5 | 3.5 | 5.2 | 0.00 | 0.00 | 0.00 | 50 | 1017.2 |
| 20260503193723 | 70 | 16 | 6.1 | 7.8 | 0.00 | 0.00 | 0.00 | 48 | 1017.3 |
| 20260503193220 | 69 | 9 | 4.3 | 6.1 | 0.00 | 0.00 | 0.00 | 48 | 1017.4 |
| 20260503192716 | 70 | 324 | 3.5 | 5.2 | 0.00 | 0.00 | 0.00 | 48 | 1017.5 |
| 20260503192211 | 69 | 350 | 5.2 | 6.1 | 0.00 | 0.00 | 0.00 | 48 | 1017.5 |
| 20260503191708 | 69 | 22 | 5.2 | 6.1 | 0.00 | 0.00 | 0.00 | 51 | 1017.5 |
| 20260503191205 | 69 | 14 | 5.2 | 6.1 | 0.00 | 0.00 | 0.00 | 51 | 1017.4 |
| 20260503190702 | 70 | 4 | 6.1 | 7.0 | 0.00 | 0.00 | 0.00 | 51 | 1017.6 |
| 20260503190158 | 70 | 7 | 4.3 | 7.0 | 0.00 | 0.00 | 0.00 | 48 | 1017.5 |
| 20260503185656 | 70 | 32 | 2.6 | 4.3 | 0.00 | 0.00 | 0.00 | 48 | 1017.7 |
| 20260503185151 | 69 | 293 | 1.7 | 4.3 | 0.00 | 0.00 | 0.00 | 48 | 1017.5 |
| 20260503184645 | 70 | 11 | 4.3 | 5.2 | 0.00 | 0.00 | 0.00 | 51 | 1017.7 |
| 20260503184142 | 68 | 12 | 2.6 | 2.6 | 0.00 | 0.00 | 0.00 | 56 | 1017.7 |
| 20260503183633 | 68 | 10 | 4.3 | 5.2 | 0.00 | 0.00 | 0.00 | 56 | 1017.9 |
| 20260503183131 | 68 | 14 | 4.3 | 7.0 | 0.00 | 0.00 | 0.00 | 58 | 1017.7 |
| 20260503182629 | 67 | 17 | 5.2 | 6.1 | 0.00 | 0.00 | 0.00 | 56 | 1018.1 |
| 20260503182127 | 67 | 1 | 5.2 | 6.1 | 0.00 | 0.00 | 0.00 | 55 | 1017.9 |
| 20260503181623 | 67 | 324 | 4.3 | 5.2 | 0.00 | 0.00 | 0.00 | 55 | 1018.0 |
| 20260503181120 | 67 | 14 | 6.1 | 7.0 | 0.00 | 0.00 | 0.00 | 57 | 1018.2 |
| 20260503180617 | 67 | 11 | 6.1 | 7.0 | 0.00 | 0.00 | 0.00 | 57 | 1018.2 |
| 20260503180115 | 67 | 339 | 3.5 | 4.3 | 0.00 | 0.00 | 0.00 | 55 | 1018.3 |
| 20260503175611 | 67 | 14 | 5.2 | 6.1 | 0.00 | 0.00 | 0.00 | 55 | 1018.2 |
| 20260503175108 | 67 | 342 | 3.5 | 5.2 | 0.00 | 0.00 | 0.00 | 55 | 1018.3 |
| 20260503174605 | 67 | 11 | 5.2 | 6.1 | 0.00 | 0.00 | 0.00 | 56 | 1018.5 |
| 20260503174102 | 68 | 27 | 2.6 | 5.2 | 0.00 | 0.00 | 0.00 | 56 | 1018.5 |
| 20260503173557 | 67 | 346 | 2.6 | 4.3 | 0.00 | 0.00 | 0.00 | 55 | 1018.6 |
| 20260503173053 | 67 | 325 | 1.7 | 5.2 | 0.00 | 0.00 | 0.00 | 56 | 1018.3 |
| 20260503172550 | 67 | 0 | 4.3 | 6.1 | 0.00 | 0.00 | 0.00 | 57 | 1018.5 |
| 20260503172048 | 66 | 24 | 2.6 | 4.3 | 0.00 | 0.00 | 0.00 | 61 | 1018.4 |
| 20260503171544 | 65 | 337 | 2.6 | 5.2 | 0.00 | 0.00 | 0.00 | 60 | 1018.3 |
| 20260503171041 | 66 | 290 | 4.3 | 5.2 | 0.00 | 0.00 | 0.00 | 62 | 1018.3 |
| 20260503170538 | 66 | 8 | 5.2 | 6.1 | 0.00 | 0.00 | 0.00 | 62 | 1018.3 |
| 20260503150924 | 66 | 255 | 0.9 | 1.7 | 0.00 | 0.00 | 0.00 | 57 | 1018.8 |
| 20260503150421 | 66 | 244 | 0.9 | 1.7 | 0.00 | 0.00 | 0.00 | 57 | 1019.0 |
| 20260503131314 | 62 | 317 | 2.6 | 6.1 | 0.00 | 0.00 | 0.00 | 56 | 1018.3 |
| 20260503130811 | 63 | 312 | 2.6 | 6.1 | 0.00 | 0.00 | 0.00 | 55 | 1018.4 |
| 20260503130309 | 61 | 265 | 0.0 | 1.7 | 0.00 | 0.00 | 0.00 | 56 | 1018.4 |
| 20260503110702 | 62 | 206 | 4.3 | 5.2 | 0.00 | 0.00 | 0.00 | 55 | 1018.5 |
| 20260503110159 | 59 | 219 | 0.9 | 0.9 | 0.00 | 0.00 | 0.00 | 62 | 1018.4 |
| 20260503100126 | 62 | 210 | 4.3 | 6.1 | 0.00 | 0.00 | 0.00 | 55 | 1018.2 |
| 20260503081515 | 63 | 235 | 4.3 | 6.1 | 0.00 | 0.00 | 0.00 | 54 | 1018.0 |
| 20260503081013 | 63 | 222 | 6.1 | 7.8 | 0.00 | 0.00 | 0.00 | 55 | 1018.2 |
| 20260503080509 | 63 | 248 | 5.2 | 7.0 | 0.00 | 0.00 | 0.00 | 55 | 1018.2 |
| 20260503072443 | 63 | 245 | 4.3 | 5.2 | 0.00 | 0.00 | 0.00 | 56 | 1018.0 |
| 20260503071939 | 63 | 261 | 5.2 | 6.1 | 0.00 | 0.00 | 0.00 | 55 | 1017.9 |
| 20260503071436 | 61 | 261 | 3.5 | 4.3 | 0.00 | 0.00 | 0.00 | 62 | 1018.0 |
| 20260503070932 | 61 | 254 | 2.6 | 2.6 | 0.00 | 0.00 | 0.00 | 61 | 1018.1 |
| 20260503070430 | 62 | 239 | 4.3 | 7.0 | 0.00 | 0.00 | 0.00 | 58 | 1018.1 |
| 20260503054843 | 58 | 273 | 1.7 | 4.3 | 0.00 | 0.00 | 0.00 | 71 | 1018.0 |
| 20260503054339 | 57 | 273 | 2.6 | 2.6 | 0.00 | 0.00 | 0.00 | 73 | 1018.1 |
| 20260503053837 | 57 | 256 | 0.9 | 1.7 | 0.00 | 0.00 | 0.00 | 73 | 1018.1 |
| 20260503053335 | 58 | 254 | 0.9 | 1.7 | 0.00 | 0.00 | 0.00 | 72 | 1018.0 |
| 20260503052831 | 58 | 252 | 1.7 | 4.3 | 0.00 | 0.00 | 0.00 | 72 | 1018.0 |
| 20260503052328 | 58 | 236 | 1.7 | 2.6 | 0.00 | 0.00 | 0.00 | 71 | 1018.2 |
| 20260503051824 | 58 | 253 | 2.6 | 4.3 | 0.00 | 0.00 | 0.00 | 71 | 1018.3 |
| 20260503051321 | 58 | 259 | 3.5 | 4.3 | 0.00 | 0.00 | 0.00 | 71 | 1018.2 |
| 20260503050818 | 59 | 252 | 3.5 | 5.2 | 0.00 | 0.00 | 0.00 | 70 | 1018.2 |
| 20260503050314 | 60 | 257 | 2.6 | 4.3 | 0.00 | 0.00 | 0.00 | 68 | 1017.9 |
| 20260503045812 | 61 | 251 | 2.6 | 5.2 | 0.00 | 0.00 | 0.00 | 65 | 1018.0 |
| 20260503045309 | 63 | 235 | 6.1 | 7.0 | 0.00 | 0.00 | 0.00 | 62 | 1018.0 |
| 20260503044805 | 66 | 226 | 7.0 | 8.7 | 0.00 | 0.00 | 0.00 | 50 | 1018.0 |
| 20260503044302 | 67 | 223 | 7.8 | 8.7 | 0.00 | 0.00 | 0.00 | 52 | 1018.0 |
| 20260503043800 | 67 | 226 | 4.3 | 6.1 | 0.00 | 0.00 | 0.00 | 52 | 1017.8 |
| 20260503043257 | 67 | 224 | 4.3 | 5.2 | 0.00 | 0.00 | 0.00 | 52 | 1017.9 |
| 20260503042752 | 67 | 232 | 4.3 | 5.2 | 0.00 | 0.00 | 0.00 | 51 | 1017.9 |
| 20260503042249 | 67 | 202 | 4.3 | 5.2 | 0.00 | 0.00 | 0.00 | 50 | 1017.8 |
| 20260503041745 | 68 | 206 | 3.5 | 4.3 | 0.00 | 0.00 | 0.00 | 49 | 1017.7 |
| 20260503041238 | 68 | 228 | 4.3 | 5.2 | 0.00 | 0.00 | 0.00 | 49 | 1017.8 |
| 20260503040735 | 68 | 218 | 3.5 | 5.2 | 0.00 | 0.00 | 0.00 | 49 | 1017.7 |
| 20260503040233 | 68 | 209 | 6.1 | 6.1 | 0.00 | 0.00 | 0.00 | 49 | 1017.8 |
| 20260503035729 | 68 | 201 | 4.3 | 5.2 | 0.00 | 0.00 | 0.00 | 49 | 1017.6 |
| 20260503035227 | 68 | 199 | 2.6 | 5.2 | 0.00 | 0.00 | 0.00 | 50 | 1017.7 |
| 20260503034724 | 68 | 222 | 3.5 | 4.3 | 0.00 | 0.00 | 0.00 | 56 | 1017.5 |
| 20260503034221 | 69 | 203 | 0.9 | 1.7 | 0.00 | 0.00 | 0.00 | 49 | 1017.4 |
| 20260503033718 | 69 | 192 | 0.9 | 1.7 | 0.00 | 0.00 | 0.00 | 49 | 1017.3 |
| 20260503033215 | 70 | 197 | 0.9 | 0.9 | 0.00 | 0.00 | 0.00 | 49 | 1017.4 |
| 20260503032714 | 70 | 197 | 0.9 | 0.9 | 0.00 | 0.00 | 0.00 | 46 | 1017.3 |
| 20260503032212 | 71 | 197 | 0.9 | 0.9 | 0.00 | 0.00 | 0.00 | 46 | 1017.3 |
| 20260503031708 | 71 | 197 | 0.9 | 0.9 | 0.00 | 0.00 | 0.00 | 45 | 1017.2 |
| 20260503031207 | 71 | 292 | 0.9 | 0.9 | 0.00 | 0.00 | 0.00 | 46 | 1017.3 |
| 20260503030702 | 71 | 292 | 0.9 | 1.7 | 0.00 | 0.00 | 0.00 | 45 | 1017.4 |
| 20260503030159 | 72 | 292 | 0.9 | 0.9 | 0.00 | 0.00 | 0.00 | 43 | 1017.2 |
| 20260503025656 | 72 | 292 | 0.0 | 0.0 | 0.00 | 0.00 | 0.00 | 43 | 1017.2 |
| 20260503025154 | 72 | 292 | 0.0 | 0.9 | 0.00 | 0.00 | 0.00 | 43 | 1017.0 |
| 20260503024650 | 72 | 292 | 0.9 | 0.9 | 0.00 | 0.00 | 0.00 | 43 | 1017.0 |
| 20260503024148 | 72 | 292 | 0.0 | 0.0 | 0.00 | 0.00 | 0.00 | 44 | 1017.1 |
| 20260503023644 | 73 | 292 | 0.0 | 0.0 | 0.00 | 0.00 | 0.00 | 43 | 1017.2 |
| 20260503023141 | 73 | 293 | 0.0 | 0.0 | 0.00 | 0.00 | 0.00 | 41 | 1017.2 |
| 20260503022638 | 73 | 293 | 0.0 | 0.0 | 0.00 | 0.00 | 0.00 | 41 | 1017.1 |
| 20260503022137 | 74 | 293 | 0.0 | 0.0 | 0.00 | 0.00 | 0.00 | 41 | 1017.1 |
| 20260503021634 | 75 | 293 | 0.0 | 0.0 | 0.00 | 0.00 | 0.00 | 40 | 1017.3 |
| 20260503021131 | 74 | 294 | 0.0 | 0.9 | 0.00 | 0.00 | 0.00 | 41 | 1017.3 |
| 20260503020628 | 73 | 304 | 1.7 | 1.7 | 0.00 | 0.00 | 0.00 | 42 | 1017.3 |
| 20260503020126 | 73 | 347 | 1.7 | 2.6 | 0.00 | 0.00 | 0.00 | 44 | 1017.4 |
| 20260503015622 | 73 | 285 | 0.9 | 1.7 | 0.00 | 0.00 | 0.00 | 44 | 1017.5 |
| 20260503015119 | 72 | 332 | 1.7 | 2.6 | 0.00 | 0.00 | 0.00 | 44 | 1017.7 |
| 20260503014615 | 72 | 357 | 2.6 | 2.6 | 0.00 | 0.00 | 0.00 | 45 | 1017.6 |
| 20260503014113 | 73 | 337 | 1.7 | 1.7 | 0.00 | 0.00 | 0.00 | 47 | 1017.6 |
| 20260503013610 | 73 | 341 | 1.7 | 1.7 | 0.00 | 0.00 | 0.00 | 45 | 1017.5 |
| 20260503013108 | 73 | 331 | 1.7 | 1.7 | 0.00 | 0.00 | 0.00 | 44 | 1017.4 |
| 20260503012605 | 72 | 0 | 1.7 | 2.6 | 0.00 | 0.00 | 0.00 | 44 | 1017.7 |
| 20260503012102 | 72 | 330 | 1.7 | 1.7 | 0.00 | 0.00 | 0.00 | 46 | 1017.8 |
| 20260503011558 | 72 | 307 | 1.7 | 2.6 | 0.00 | 0.00 | 0.00 | 48 | 1017.8 |
| 20260503011055 | 71 | 349 | 1.7 | 2.6 | 0.00 | 0.00 | 0.00 | 47 | 1017.9 |
| 20260503010551 | 72 | 317 | 2.6 | 2.6 | 0.00 | 0.00 | 0.00 | 47 | 1017.7 |
| 20260503010049 | 72 | 359 | 3.5 | 4.3 | 0.00 | 0.00 | 0.00 | 46 | 1017.8 |
| 20260503005546 | 72 | 13 | 2.6 | 4.3 | 0.00 | 0.00 | 0.00 | 48 | 1017.8 |
| 20260503005043 | 71 | 341 | 2.6 | 4.3 | 0.00 | 0.00 | 0.00 | 48 | 1017.9 |
| 20260503004539 | 71 | 18 | 3.5 | 5.2 | 0.00 | 0.00 | 0.00 | 49 | 1017.9 |
| 20260503004038 | 72 | 16 | 5.2 | 7.0 | 0.00 | 0.00 | 0.00 | 48 | 1017.8 |
| 20260503003534 | 73 | 8 | 4.3 | 6.1 | 0.00 | 0.00 | 0.00 | 50 | 1017.8 |
| 20260503003031 | 73 | 327 | 1.7 | 2.6 | 0.00 | 0.00 | 0.00 | 42 | 1017.9 |
| 20260503002528 | 73 | 341 | 1.7 | 2.6 | 0.00 | 0.00 | 0.00 | 42 | 1017.9 |
| 20260503002025 | 73 | 301 | 0.9 | 1.7 | 0.00 | 0.00 | 0.00 | 45 | 1017.8 |
| 20260503001521 | 72 | 9 | 1.7 | 2.6 | 0.00 | 0.00 | 0.00 | 47 | 1018.0 |
| 20260503001019 | 72 | 324 | 0.9 | 0.9 | 0.00 | 0.00 | 0.00 | 48 | 1018.0 |
| 20260503000516 | 71 | 330 | 2.6 | 2.6 | 0.00 | 0.00 | 0.00 | 50 | 1017.9 |
| 20260503000013 | 71 | 5 | 2.6 | 4.3 | 0.00 | 0.00 | 0.00 | 52 | 1018.0 |
| 20260502235509 | 71 | 351 | 3.5 | 5.2 | 0.00 | 0.00 | 0.00 | 52 | 1018.0 |
| 20260502235008 | 71 | 13 | 3.5 | 5.2 | 0.00 | 0.00 | 0.00 | 53 | 1018.1 |
| 20260502234503 | 71 | 14 | 5.2 | 6.1 | 0.00 | 0.00 | 0.00 | 50 | 1018.1 |
| 20260502234001 | 72 | 16 | 4.3 | 5.2 | 0.00 | 0.00 | 0.00 | 52 | 1018.2 |
| 20260502233456 | 72 | 344 | 2.6 | 4.3 | 0.00 | 0.00 | 0.00 | 44 | 1018.3 |
| 20260502232953 | 72 | 15 | 4.3 | 5.2 | 0.00 | 0.00 | 0.00 | 47 | 1018.6 |
| 20260502232450 | 71 | 23 | 1.7 | 5.2 | 0.00 | 0.00 | 0.00 | 51 | 1018.4 |
| 20260502231946 | 71 | 8 | 2.6 | 6.1 | 0.00 | 0.00 | 0.00 | 52 | 1018.5 |
| 20260502231444 | 71 | 7 | 3.5 | 4.3 | 0.00 | 0.00 | 0.00 | 51 | 1018.7 |
| 20260502230942 | 71 | 20 | 4.3 | 6.1 | 0.00 | 0.00 | 0.00 | 52 | 1018.4 |